Location: Washington
(38.8950°N, 77.0370°W)
Time: 14:33:42
(UTC-04:00)

ISS - All Passes

Search period start: 30 September 2016 00:00
Search period end: 10 October 2016 00:00
Orbit: 400 x 409 km, 51.6° (Epoch: 30 September)

Date Brightness Start Highest point End Pass type
(mag) Time Alt. Az. Time Alt. Az. Time Alt. Az.
30 Sep - 00:42:57 10° NNW 00:44:30 13° NNE 00:46:03 10° NE night (unlit)
30 Sep - 02:18:24 10° NW 02:21:37 48° NE 02:24:48 10° ESE night (unlit)
30 Sep - 03:55:42 10° W 03:57:49 16° SW 03:59:56 10° S night (unlit)
30 Sep - 18:57:43 10° SSW 19:00:32 28° SE 19:03:22 10° ENE daylight
30 Sep - 20:34:03 10° W 20:36:58 30° NNW 20:39:55 10° NE visible
30 Sep - 22:13:35 10° NNW 22:14:17 10° N 22:14:59 10° N visible
30 Sep - 23:51:29 10° N 23:52:00 10° N 23:52:32 10° NNE night (unlit)
01 Oct - 01:26:27 10° NNW 01:29:21 28° NNE 01:32:16 10° E night (unlit)
01 Oct - 03:02:52 10° WNW 03:05:50 31° SW 03:08:46 10° SSE night (unlit)
01 Oct - 18:06:44 10° SSE 18:08:33 14° SE 18:10:24 10° E daylight
01 Oct - 19:41:32 10° WSW 19:44:42 53° NW 19:47:55 10° NE visible
01 Oct - 21:20:10 10° NW 21:21:47 13° NNW 21:23:25 10° NNE visible
02 Oct - 00:34:33 10° NNW 00:37:00 19° NNE 00:39:26 10° ENE night (unlit)
02 Oct - 02:10:29 10° WNW 02:13:44 65° SW 02:17:00 10° SE night (unlit)
02 Oct - 18:49:18 10° SW 18:52:31 76° SE 18:55:47 10° NE daylight
02 Oct - 20:27:03 10° WNW 20:29:20 17° NNW 20:31:37 10° NNE visible
02 Oct - 23:42:45 10° NNW 23:44:33 14° NNE 23:46:22 10° NE night (unlit)
03 Oct - 01:18:19 10° NW 01:21:34 62° NE 01:24:49 10° ESE night (unlit)
03 Oct - 02:56:11 10° WSW 02:57:41 13° SW 02:59:10 10° SSW night (unlit)
03 Oct - 17:57:24 10° SSW 18:00:24 36° SE 18:03:25 10° ENE daylight
03 Oct - 19:34:09 10° W 19:36:56 25° NNW 19:39:44 10° NNE visible
03 Oct - 22:51:05 10° N 22:52:03 11° NNE 22:53:00 10° NNE night (unlit)
04 Oct - 00:26:16 10° NW 00:29:18 34° NNE 00:32:20 10° E night (unlit)
04 Oct - 02:02:57 10° WNW 02:05:41 24° SW 02:08:24 10° S night (unlit)
04 Oct - 17:06:03 10° S 17:08:22 18° SE 17:10:40 10° E daylight
04 Oct - 18:41:30 10° WSW 18:44:37 42° NNW 18:47:44 10° NE daylight
04 Oct - 20:20:27 10° NW 20:21:46 12° NNW 20:23:06 10° N visible
04 Oct - 23:34:19 10° NNW 23:36:56 22° NNE 23:39:34 10° E night (unlit)
05 Oct - 01:10:24 10° WNW 01:13:35 49° SW 01:16:46 10° SSE night (unlit)
05 Oct - 17:49:07 10° SW 17:52:22 83° NW 17:55:37 10° NE daylight
05 Oct - 19:27:12 10° WNW 19:29:16 16° NNW 19:31:20 10° NNE visible
05 Oct - 22:42:26 10° NNW 22:44:29 15° NNE 22:46:32 10° ENE night (unlit)
06 Oct - 00:18:07 10° NW 00:21:24 79° NE 00:24:41 10° SE night (unlit)
06 Oct - 16:57:04 10° SSW 17:00:11 47° SE 17:03:19 10° ENE daylight
06 Oct - 18:34:12 10° W 18:36:48 22° NNW 18:39:26 10° NNE daylight
06 Oct - 21:50:40 10° N 21:51:57 12° NNE 21:53:15 10° NE visible
06 Oct - 23:26:00 10° NW 23:29:07 41° NNE 23:32:15 10° ESE night (unlit)
07 Oct - 01:02:59 10° W 01:05:24 19° SW 01:07:49 10° S night (unlit)
07 Oct - 16:05:26 10° S 16:08:03 23° SE 16:10:43 10° ENE daylight
07 Oct - 17:41:24 10° W 17:44:25 35° NNW 17:47:26 10° NE daylight
07 Oct - 19:20:40 10° NNW 19:21:39 11° NNW 19:22:38 10° N visible
07 Oct - 22:33:59 10° NNW 22:36:45 25° NNE 22:39:31 10° E night (unlit)
08 Oct - 00:10:14 10° WNW 00:13:18 38° SW 00:16:22 10° SSE night (unlit)
08 Oct - 15:14:47 10° SSE 15:16:01 12° SE 15:17:15 10° ESE daylight
08 Oct - 16:48:52 10° WSW 16:52:05 65° NW 16:55:19 10° NE daylight
08 Oct - 18:27:15 10° NW 18:29:05 14° NNW 18:30:54 10° NNE daylight
08 Oct - 21:42:02 10° NNW 21:44:18 17° NNE 21:46:33 10° ENE visible
08 Oct - 23:17:51 10° NW 23:21:07 80° SW 23:24:22 10° SE night (unlit)
09 Oct - 15:56:38 10° SW 15:59:50 61° SE 16:03:03 10° ENE daylight
09 Oct - 17:34:07 10° WNW 17:36:34 19° NNW 17:39:00 10° NNE daylight
09 Oct - 20:50:11 10° NNW 20:51:45 13° NNE 20:53:19 10° NE visible
09 Oct - 22:25:38 10° NW 22:28:50 51° NE 22:32:01 10° ESE night (unlit)
